Location: Capelle
(50.3413°N, 1.9974°E)
Time: 07:21:46
(UTC+00:00)

Cosmos 1470 Rocket - Pass Details

Date: 12 January 2026
Orbit: 598 x 625 km, 82.5° (Epoch: 18 February)

Event Time Altitude Azimuth Distance (km) Brightness Sun altitude
Rises 17:38:22 0° 352° (N) 2,859 6.9 -13.0°
Reaches altitude 10° 17:40:37 10° 356° (N) 1,953 6.0 -13.4°
Maximum altitude 17:44:53 61° 77° (ENE) 688 3.5 -14.0°
Drops below altitude 10° 17:49:09 10° 158° (SSE) 1,949 6.1 -14.7°
Sets 17:51:23 0° 162° (SSE) 2,852 7.0 -15.0°
